PROFILE

 METAR AND TAF INFORMATION
ADDS - METARS form results

(1105 UTC 20 August 2018)

 
LIRF 201050Z 28007KT 230V360 CAVOK 32/19 Q1013 NOSIG
LIRF 201020Z VRB04KT CAVOK 32/16 Q1013 NOSIG

 AIRPORT MAP

 RUNWAY INFORMATION
Runway 07 Runway length 10849 ft Runway width 148 ft
Runway elevation 7 ft Runway displaced threshold 1365 ft Runway heading 70
Runway 25 Runway length 10849 ft Runway width 148 ft
Runway elevation 7 ft Runway displaced threshold 0 ft Runway heading 250
Runway 16C Runway length 11818 ft Runway width 148 ft
Runway elevation 11 ft Runway displaced threshold 0 ft Runway heading 163
Runway 34C Runway length 11818 ft Runway width 148 ft
Runway elevation 4 ft Runway displaced threshold 0 ft Runway heading 343
Runway 16L Runway length 12795 ft Runway width 197 ft
Runway elevation 14 ft Runway displaced threshold 0 ft Runway heading 163
Runway 34R Runway length 12795 ft Runway width 197 ft
Runway elevation 7 ft Runway displaced threshold 0 ft Runway heading 343
Runway 16R Runway length 12795 ft Runway width 197 ft
Runway elevation 7 ft Runway displaced threshold 0 ft Runway heading 163
Runway 34L Runway length 12795 ft Runway width 197 ft
Runway elevation 8 ft Runway displaced threshold 1053 ft Runway heading 343

 AIRPORT FREQUENCIES
Type ARR Name ROMA DIREC Frequency 119.2 MHZ
Type ATIS Name ATIS Frequency 114.9 MHZ
Type CLD Name FIUME RAMP Frequency 121.725 MHZ
Type GND Name FIUME GND/ Frequency 121.8 MHZ
Type TWR Name FIUME TWR Frequency 118.7 MHZ

 AIRPORT NEAR NAVIGATION AIDS
Type NDB Name Fiumicino Frequency 354 KHZ
Type NDB Name Fiumicino Frequency 421 KHZ
Type NDB Name Fiumicino Frequency 345 KHZ
Type VOR-DME Name Ostia Frequency 114900 KHZ
Type NDB Name Ostia Frequency 321 KHZ